Regional Weather Roundup
Issued by NWS

Home | Current Version | Previous Version | Graphics & Text | Print | Product List | Glossary On
Versions: 1 2 3 4 5 6 7 8 9 10 11 12 13 14 15 16 17 18 19 20 21 22 23 24 25 26 27 28 29 30 31 32 33 34 35 36 37 38 39 40 41 42 43 44 45 46 47 48 49 50
371
ASUS45 KCYS 271310
RWRWY

WYOMING REGIONAL WEATHER ROUNDUP
NATIONAL WEATHER SERVICE CHEYENNE WY
700 AM MDT WED JUL 27 2016

NOTE:  "FAIR" INDICATES FEW OR NO CLOUDS BELOW 12,000 FEET
WITH NO SIGNIFICANT WEATHER AND/OR OBSTRUCTIONS TO VISIBILITY.

WYZ001-271400-
YELLOWSTONE NATIONAL PARK

CITY           SKY/WX    TMP DP  RH WIND       PRES   REMARKS
LK YELLOWSTONE   N/A     40  35  83 CALM      30.40R
W YELLOWSTONE  NOT AVBL

$$
WYZ002>013-054>058-071-098>099-271400-
NORTHERN WYOMING

CITY           SKY/WX    TMP DP  RH WIND       PRES   REMARKS
JACKSON        CLEAR     46  37  71 CALM      30.31R
CODY           FAIR      61  45  55 SW7       30.21F
GREYBULL       FAIR      64  48  56 SE3       30.12R
WORLAND        FAIR      60  49  66 CALM      30.15R
SHERIDAN       FAIR      65  52  62 VRB5      30.14R
BUFFALO        FAIR      65  52  62 NE5       30.20S
GILLETTE       FAIR      66  52  60 CALM      30.15R
HULETT         FAIR      63  59  88 CALM      30.15R
NEWCASTLE      LGT RAIN  61  54  77 SE15G21   30.17S

$$
WYZ014>020-022>026-101>103-271400-
CENTRAL WYOMING

CITY           SKY/WX    TMP DP  RH WIND       PRES   REMARKS
BIG PINEY      FAIR      49  27  42 CALM      30.32S
PINEDALE       FAIR      41  34  75 W8        30.33R
DUBOIS         CLOUDY    48  32  53 W9        30.34R HAZE
LANDER         FAIR      59  44  57 W6        30.22R
RIVERTON       FAIR      63  45  51 N8        30.22R
CASPER         FAIR      61  53  75 NE3       30.21R
DOUGLAS          N/A    N/A N/A N/A MISG      30.22R

$$
WYZ021-027>030-104>119-271400-
SOUTHERN WYOMING

CITY           SKY/WX    TMP DP  RH WIND       PRES   REMARKS
EVANSTON       FAIR      60  23  24 S8        30.32R
KEMMERER         N/A     52  30  43 N10       30.33R
FORT BRIDGER   FAIR      67  22  18 W9        30.33R
ROCK SPRINGS   FAIR      61  35  37 CALM      30.29R
DIXON          FAIR      50  40  67 CALM      30.32R
RAWLINS        FAIR      57  37  47 NE5       30.28R
SARATOGA       FAIR      59  39  47 E10       30.30S
LARAMIE        FAIR      54  37  52 S5        30.32S
CHEYENNE       FAIR      61  46  57 N9        30.28R
TORRINGTON     FAIR      62  59  90 S7        30.21R
PINE BLUFFS    FAIR      57  52  82 NW14      30.27R

$$




USA.gov is the U.S. government's official web portal to all federal, state and local government web resources and services.